Location: Escoub�s
(43.1064°N, 0.0308°E)
Time: 15:32:25
(UTC+00:00)

Daily predictions for brighter satellites

Satellite Brightness Start Highest point End
(mag) Time Altitude Azimuth Time Altitude Azimuth Time Altitude Azimuth
CSL-04 DEB 4.4 18:16:04 10° NNE 18:20:03 88° ESE 18:24:04 10° SSW
ATLAS CENTAUR R/B 2.1 18:19:27 10° S 18:22:29 26° ESE 18:25:33 10° ENE
Okean-O 2.8 18:23:10 10° SSE 18:27:27 52° ENE 18:31:47 10° N
Cosmos 44 Rocket 3.6 18:22:38 10° NNW 18:27:48 56° NE 18:32:54 10° SE
CSL-04 Rocket 4.2 18:23:52 10° SE 18:28:56 38° ENE 18:33:59 10° N
ERS-2 2.6 18:25:51 10° NNE 18:29:17 38° E 18:32:41 10° S
Cosmos 2084 Rocket 4.0 18:25:58 10° NNW 18:30:05 41° NE 18:34:20 10° ESE
Cosmos 1844 Rocket 3.5 18:25:16 10° N 18:30:12 31° NE 18:35:05 10° ESE
Cosmos 1666 4.3 18:30:47 10° ESE 18:32:50 14° E 18:34:53 10° NE
Cosmos 1271 Rocket 3.2 18:31:14 10° NNW 18:34:58 64° W 18:38:41 10° S
HJ-1C 3.9 18:32:19 10° SE 18:35:24 37° ENE 18:38:30 10° N
Cosmos 1503 Rocket 4.4 18:32:05 10° N 18:36:59 41° ENE 18:41:50 10° SE
H-2A R/B 4.4 18:34:37 10° N 18:38:02 26° WNW 18:41:27 10° WSW
PSLV R/B 3.8 18:36:21 10° NNE 18:40:27 69° ESE 18:44:29 10° S
Cosmos 1470 Rocket 3.7 18:36:13 10° S 18:40:35 55° E 18:44:57 10° NNE
Cosmos 1844 4.5 18:36:50 10° N 18:42:01 33° NE 18:46:58 11° ESE
Cosmos 2360 Rocket 2.4 18:37:30 10° S 18:42:52 48° ESE 18:48:17 10° NE
Cosmos 1602 3.8 18:40:21 10° S 18:44:14 84° W 18:48:10 10° N
CZ-4B R/B 3.0 18:41:31 10° N 18:44:20 34° WNW 18:47:10 10° SW
Ariane Rocket 4.5 18:42:04 13° E 18:44:37 18° ENE 18:47:59 10° NNE
Cosmos 2278 Rocket 4.2 18:45:42 10° NNE 18:46:40 10° NE 18:47:37 10° NE
Meteor 1-19 Rocket 4.3 18:44:12 10° N 18:50:10 79° E 18:55:55 10° SSE
Cosmos 1500 3.2 18:47:42 10° S 18:51:19 51° E 18:54:57 10° NNE
Cosmos 2333 Rocket 3.1 18:48:41 10° SSE 18:53:11 25° ESE 18:57:44 10° NE
Meteor 2-4 Rocket 4.0 18:49:00 10° N 18:54:42 51° ENE 19:00:26 10° SSE
Cosmos 1703 Rocket 4.2 18:50:52 10° N 18:54:52 33° ENE 18:58:50 10° SE
DMSP B5D1-3 4.5 18:50:25 10° NNE 18:55:36 79° ESE 19:00:46 10° S
SL-08 RB Rocket 3.8 18:51:39 10° SSE 18:56:02 54° ENE 19:00:30 10° N
Meteor 2-12 Rocket 4.4 18:50:39 10° S 18:56:40 73° E 19:02:45 10° NNE
Cosmos 1689 Rocket 2.0 18:54:53 10° N 18:57:46 79° WNW 19:00:38 10° SSW
Cosmos 1933 Rocket 3.5 18:57:12 10° S 19:01:29 61° E 19:05:49 10° NNE
BREEZE-M DEB (TANK) 3.7 19:01:27 10° SSW 19:03:32 25° SE 19:03:36 25° SE
Aureole 2 Rocket 1.4 19:02:57 10° NNW 19:05:29 86° ENE 19:06:52 23° SSE
Cosmos 1862 Rocket 4.2 19:02:34 10° NNW 19:07:01 61° W 19:11:24 10° S
Resurs 01 Rocket 3.8 19:12:41 11° NE 19:12:41 11° NE 19:13:06 10° NE
Cosmos 2322 Rocket 2.8 19:07:20 10° SW 19:12:50 57° WNW 19:18:24 10° NNE
Cosmos 2242 Rocket 3.6 19:08:33 10° N 19:13:01 60° E 19:17:24 10° SSE
Lacrosse 4 Rocket 2.5 19:11:18 10° SSE 19:14:29 26° ESE 19:14:29 26° ESE
Abrixas rocket 3.3 19:13:44 10° WNW 19:15:48 22° N 19:16:07 22° N
Helios 1A Rocket 3.2 19:14:24 10° S 19:18:26 69° WSW 19:22:28 10° NNW
YAOGAN 1 4.0 19:15:11 10° S 19:19:15 40° W 19:23:21 10° NNW
SME Rocket 4.3 19:12:16 10° NNE 19:19:35 44° E 19:24:30 10° SSE
Nadezhda 3 Rocket 4.5 19:15:40 10° NNW 19:21:58 65° W 19:28:15 10° S
COSMOS 2428 3.3 19:18:12 10° SSE 19:23:09 32° ESE 19:24:51 27° ENE
SJ-6B 3.3 19:22:30 37° ESE 19:23:19 41° ENE 19:27:09 10° N
GP-B 3.1 19:22:48 10° S 19:27:14 84° W 19:31:42 10° N
ASTEX 1 3.7 19:24:02 10° NNE 19:28:37 40° E 19:30:11 31° SE
Cosmos 2219 Rocket 2.4 19:24:48 10° S 19:30:02 43° ESE 19:35:18 10° NE
Meteor 1-11 Rocket 3.9 19:25:01 10° SSE 19:30:29 48° E 19:35:53 10° NNE
MetOp-A 4.0 19:26:57 10° SSE 19:32:15 70° ENE 19:37:36 10° N
OBJECT-B 2.7 19:36:24 20° NNE 19:36:24 20° NNE 19:37:40 10° N
ARGOS 4.2 19:31:21 10° S 19:36:33 47° W 19:41:47 10° NNW
SL-16 R/B 4.0 19:32:46 10° WSW 19:37:44 31° NW 19:42:46 10° N
SJ 16-02 3.2 19:37:50 10° N 19:39:35 17° NNE 19:39:35 17° NNE
SeaSat 1 3.2 19:37:17 10° NNE 19:42:05 53° WNW 19:46:52 10° SW
Okean 1-7 3.1 19:37:47 10° N 19:42:11 79° W 19:45:45 15° S
CZ-4 R/B 4.3 19:40:18 10° SW 19:42:50 17° W 19:45:25 10° NW
Cosmos 1066 Rocket 4.4 19:38:51 10° N 19:44:24 50° ENE 19:45:41 43° ESE
Meteor 1-13 Rocket 4.2 19:38:55 10° N 19:44:52 71° ENE 19:48:31 24° SSE
USA 234 3.2 19:39:54 17° NE 19:45:09 86° SE 19:51:43 10° SW
H-2A R/B 4.3 19:42:45 10° SSW 19:47:16 26° W 19:51:49 10° NW
IRS-1A Rocket 4.2 19:46:43 35° SE 19:49:08 67° ENE 19:54:40 10° N
CZ-2C R/B 3.6 19:44:34 10° N 19:49:52 50° WNW 19:54:59 10° SW
Cosmos 2322 3.6 19:44:15 10° SSW 19:49:58 81° ESE 19:55:43 10° NNE
BREEZE-M DEB (TANK) 3.4 19:48:10 10° NW 19:50:48 36° NNE 19:51:09 35° NNE
SL-4 R/B 3.1 19:51:52 10° NW 19:54:12 29° NNW 19:54:12 29° NNW
DMSP B5D2-2 4.4 19:50:32 10° N 19:55:43 66° WNW 20:00:52 10° SSW
Cosmos 1869 Rocket 3.5 19:51:25 10° S 19:55:46 83° W 20:00:11 10° N
SL-8 Rocket 4.1 19:51:54 10° SSW 19:58:09 77° W 20:04:23 10° N
FALCON 9 DEB 4.3 19:57:00 10° WNW 19:59:26 43° WNW 19:59:26 43° WNW
ATLAS CENTAUR R/B 3.1 19:58:11 10° WSW 20:01:17 26° NW 20:03:10 17° N
Cosmos 1666 4.2 20:04:36 10° SW 20:08:02 35° WNW 20:11:30 10° N
Cosmos 2366 rocket 4.2 20:06:54 10° SSW 20:13:12 74° W 20:19:34 10° N
Cosmos 1844 Rocket 3.8 20:08:59 10° NW 20:14:10 41° WSW 20:17:54 18° SSW
SL-08 R/B 4.4 20:11:58 42° SSE 20:14:13 71° E 20:20:40 10° NNE
SPOT 3 Rocket 4.3 20:18:38 41° NNE 20:18:38 41° NNE 20:22:14 10° N
Cosmos 1777 Rocket 4.1 20:12:24 10° NNW 20:17:37 69° WSW 20:18:17 61° SSW
Okean 3 4.3 20:16:09 10° NNW 20:19:31 49° NW 20:19:31 49° NW
Ariane Rocket 3.3 20:22:15 55° SW 20:23:04 63° WSW 20:28:08 10° NNW
Cosmos 2360 Rocket 4.1 20:22:15 10° WSW 20:27:05 28° NW 20:31:57 10° N
Cosmos 2278 Rocket 3.1 20:26:37 10° NNW 20:30:28 39° NNE 20:30:28 39° NNE
Cosmos 1727 Rocket 4.1 20:30:49 10° NNW 20:36:58 73° W 20:37:44 65° SW
Cosmos 2333 Rocket 3.0 20:31:35 10° SW 20:37:05 50° WNW 20:42:40 10° NNE
Meteor 2-20 4.4 20:32:10 10° N 20:38:13 80° W 20:38:13 80° W
Resurs 01 Rocket 3.9 20:50:14 20° NNW 20:50:14 20° NNW 20:51:36 10° NNW
Lacrosse 4 Rocket 3.9 20:49:29 10° WSW 20:50:57 19° WSW 20:50:57 19° WSW
COSMOS 2428 3.9 21:01:58 10° SW 21:14:01 - NNE 21:07:14 40° WNW
Cosmos 2219 Rocket 3.8 21:09:14 10° WSW 21:14:06 30° NW 21:19:02 10° N
SJ 16-02 4.2 21:15:51 10° NW 21:16:35 14° NW 21:16:35 14° NW
USA 234 4.3 21:27:15 38° NNW 21:27:46 39° NNW 21:33:42 10° W
